Theta_e
313 313 314 314 315 315 315 314 314 314 315 317 319 321 321 322 323 324 325 325 323 323 326 327 325 322 321 322 323 323 323 322 322 321 321 320 316 313 312 312 311 310 308 306 303 301 299 297 297 297 296 296 296 296 296 295 295 295 294 294 293 293 293 292 292 294 295 294 294 293 293 292 292 292 291 291 291 290 290 290 289 289 289 289 289
311 311 312 313 313 313 313 313 313 313 315 317 319 320 321 322 322 322 323 323 323 325 326 324 321 320 320 321 322 321 320 319 319 317 316 314 312 310 310 309 308 306 304 302 300 298 297 297 297 297 296 296 296 295 295 295 294 294 294 293 293 292 292 292 292 293 294 294 293 293 292 292 291 291 290 290 290 290 290 289 289 289 289 289 289
310 310 311 311 311 311 311 311 311 312 314 316 317 318 320 321 321 320 321 322 324 325 324 322 321 321 321 321 321 320 319 319 318 314 311 311 310 309 308 307 305 302 300 299 298 297 297 297 296 296 296 296 295 295 295 294 294 293 293 293 293 292 292 292 292 291 292 293 293 292 292 291 290 290 289 289 289 289 289 289 289 289 289 289 289
311 311 310 310 310 310 310 310 310 311 312 314 316 318 319 320 320 321 323 324 325 324 323 323 323 321 320 320 319 319 318 318 315 311 309 309 308 307 306 303 301 299 298 298 297 297 297 296 296 296 295 295 295 294 294 293 293 293 293 293 293 293 292 291 291 290 291 292 293 291 290 290 289 289 289 289 289 289 289 289 289 289 289 289 289
312 312 311 311 310 310 310 310 310 310 311 313 315 318 320 321 322 323 324 324 323 322 321 321 321 320 319 318 317 316 314 313 311 309 309 307 305 303 302 300 298 298 297 297 296 296 296 296 296 295 295 294 294 294 293 293 293 293 293 293 293 292 292 291 290 290 290 290 292 291 290 289 289 289 288 289 289 289 289 289 289 289 290 290 290
312 312 312 311 312 311 311 310 310 310 311 313 315 317 320 322 322 322 322 322 321 320 319 319 319 319 318 316 314 312 310 309 308 307 306 304 302 300 299 298 297 297 296 296 296 296 296 295 295 295 294 294 293 293 293 293 293 293 293 293 292 292 291 291 290 290 290 289 290 290 290 289 288 288 288 288 289 289 289 289 289 289 290 290 290
313 313 313 313 312 312 311 311 311 310 311 315 317 319 320 320 320 320 320 319 319 318 318 318 317 315 314 312 310 309 309 308 306 305 303 301 299 298 297 297 297 296 296 296 296 295 295 294 294 294 293 293 293 293 293 293 293 293 292 292 292 291 291 291 290 289 289 289 289 289 289 288 288 288 288 288 289 288 288 288 289 289 290 290 289
314 314 314 313 313 313 313 312 312 311 312 315 317 319 320 319 319 318 317 317 317 316 315 314 313 312 310 309 309 308 307 306 304 302 300 298 297 297 297 296 296 296 295 295 295 294 294 294 293 293 293 293 293 293 292 292 292 292 291 291 291 291 290 290 289 289 288 288 288 288 288 288 288 288 288 288 288 288 286 285 286 287 288 289 289
314 314 314 314 314 314 314 313 313 314 315 316 316 316 317 317 317 316 316 317 316 313 311 311 310 310 309 308 308 306 305 303 300 299 298 297 297 296 296 296 295 295 294 294 294 293 293 293 293 292 292 292 292 292 292 291 291 291 291 290 290 289 289 289 288 288 288 288 287 287 287 287 287 287 288 288 287 286 285 284 284 284 286 287 288
314 314 314 314 314 314 314 314 314 314 315 316 316 315 315 315 316 316 316 316 313 311 310 310 309 309 308 308 307 304 302 299 297 296 296 296 296 295 295 295 294 294 294 293 293 293 293 292 292 292 292 292 291 291 291 291 290 290 289 289 289 288 288 288 288 287 287 287 287 287 287 287 287 287 287 287 286 285 284 284 284 285 285 285 287
314 314 314 314 314 314 314 314 315 314 314 315 315 315 315 316 316 315 314 312 311 310 310 309 308 308 307 306 304 301 298 297 296 296 295 295 295 295 294 294 294 293 293 293 292 292 292 292 292 292 291 291 291 291 291 290 290 289 289 288 288 288 287 287 287 287 287 287 287 287 286 287 287 286 285 285 285 285 284 284 284 284 285 284 285
313 313 314 314 314 314 314 314 315 315 315 315 315 316 315 315 314 312 311 310 310 310 309 308 307 306 305 303 301 298 297 296 296 295 295 294 294 294 294 293 293 293 292 292 292 292 292 292 291 291 291 291 291 290 290 290 289 289 288 288 287 287 287 287 287 287 286 286 286 286 286 286 286 286 284 284 284 284 284 284 284 284 284 284 283
313 313 313 314 314 314 314 314 314 315 315 315 315 315 314 313 312 311 310 310 309 308 307 307 306 303 301 300 298 297 296 296 295 294 294 294 294 294 293 293 293 292 292 292 292 291 291 291 291 291 291 291 290 290 290 289 289 288 288 288 287 287 287 286 286 286 286 286 286 286 285 285 285 284 284 283 283 284 284 284 284 283 283 283 283
313 313 313 313 313 313 313 313 313 314 314 314 314 313 312 311 311 310 310 309 308 308 307 305 302 300 298 297 297 296 295 295 294 294 294 294 293 293 293 292 292 292 292 292 291 291 291 291 291 291 290 290 290 290 289 289 289 288 288 288 287 287 286 286 286 286 285 285 285 285 285 285 284 284 284 284 283 283 283 283 283 283 283 284 285
313 313 313 313 313 313 313 313 313 313 313 313 312 311 311 311 310 310 309 308 308 307 305 302 299 297 296 296 296 295 294 294 294 294 293 293 293 293 292 292 292 292 292 291 291 291 291 291 290 290 290 290 289 289 289 289 289 288 288 288 287 286 286 286 285 285 285 285 285 285 285 285 285 284 284 284 283 283 283 282 282 282 282 284 285
313 313 313 313 313 312 312 312 312 312 312 312 311 311 310 310 310 309 308 308 307 305 302 299 297 296 295 295 294 294 294 294 294 293 293 293 293 292 292 292 292 291 291 291 291 291 290 290 290 290 289 289 289 289 289 288 288 288 288 287 287 286 285 285 285 285 285 285 284 284 285 285 285 284 284 284 283 283 283 283 283 282 282 283 284
313 312 313 313 312 312 312 312 312 312 311 311 311 310 310 309 309 308 308 307 305 302 298 296 295 295 295 294 294 293 293 293 293 293 293 292 292 292 292 291 291 291 291 291 290 290 290 290 289 289 289 289 288 288 288 288 288 287 287 287 286 285 285 285 285 284 284 284 284 284 284 284 284 284 284 284 283 283 282 282 282 281 281 281 281
313 312 312 312 312 312 312 312 312 311 311 311 310 309 309 309 308 308 307 306 303 299 296 295 295 294 294 294 293 293 293 293 293 292 292 292 292 292 291 291 291 291 290 290 290 290 289 289 289 289 288 288 288 288 288 287 287 287 287 286 285 285 285 285 284 284 284 284 284 284 284 284 284 284 284 283 283 282 281 280 280 280 279 280 280
312 312 312 312 312 312 312 311 311 311 310 310 309 309 309 308 307 307 305 302 300 297 295 295 295 294 293 293 293 293 292 293 292 292 292 292 291 291 291 290 290 290 290 289 289 289 289 288 288 288 288 288 287 287 287 287 287 286 286 285 285 285 284 284 284 284 284 284 284 284 284 284 284 284 283 283 282 281 281 280 280 279 279 279 279
312 312 312 312 311 311 311 311 311 310 310 309 309 308 308 307 306 305 301 298 296 296 295 294 294 294 293 292 292 292 292 292 292 292 291 291 290 290 290 290 290 289 289 289 289 288 288 288 288 287 287 287 287 287 287 286 286 286 285 285 284 284 284 284 283 283 283 283 283 284 284 284 284 283 283 283 282 281 281 281 280 279 278 278 278
312 312 311 311 311 311 311 310 310 309 309 308 308 308 307 306 304 302 299 296 295 295 295 294 293 293 293 292 292 292 292 292 292 291 291 290 290 290 289 289 289 289 289 288 288 288 288 287 287 287 287 287 287 286 286 286 286 285 285 284 284 284 283 283 283 283 283 283 283 283 283 283 283 283 283 283 282 282 282 281 280 279 278 277 277
311 311 311 311 311 310 310 310 309 309 308 307 307 307 305 303 301 299 297 296 295 294 294 293 292 292 292 292 292 292 292 292 291 291 290 290 290 289 289 289 289 288 288 288 288 288 287 287 287 287 287 287 286 286 286 285 285 284 284 284 283 283 283 283 283 283 283 282 282 283 283 283 283 283 283 283 283 282 282 282 281 280 279 278 277
311 310 310 310 310 310 310 309 308 308 307 307 306 306 303 300 298 296 295 295 295 294 293 292 292 292 292 292 292 292 291 291 291 291 290 290 289 289 289 288 288 288 288 288 288 287 287 287 287 287 286 286 286 285 285 285 284 284 284 283 283 283 283 283 283 282 282 282 282 282 282 282 282 283 283 283 283 283 282 282 281 281 280 280 279
310 310 310 310 309 309 309 308 308 307 307 306 305 303 301 299 296 295 294 294 294 293 292 292 292 292 292 292 291 291 291 291 291 290 290 289 289 288 288 288 288 288 288 287 287 287 287 287 286 286 286 285 285 285 284 284 284 283 283 283 283 283 283 283 282 282 282 282 281 281 281 281 282 282 282 282 282 282 282 282 281 281 281 280 280
310 310 309 309 309 309 308 307 307 307 306 305 303 301 299 297 295 294 293 293 293 293 292 292 292 292 292 292 291 291 291 291 290 290 289 289 289 288 288 288 288 288 287 287 287 287 286 286 286 286 285 285 284 284 284 283 283 283 283 283 282 282 282 282 282 282 281 281 281 280 280 281 281 281 281 281 281 282 282 282 282 282 282 281 280
309 309 309 309 308 308 308 307 307 306 305 303 301 298 297 295 295 294 293 293 292 292 292 292 292 291 291 291 291 291 291 291 290 290 289 289 288 288 288 287 287 287 287 287 287 286 286 286 285 285 285 284 284 283 283 283 283 282 282 282 282 282 282 282 281 281 281 280 280 280 279 280 280 280 281 281 281 281 281 282 282 282 282 282 281
309 308 308 308 308 307 307 307 306 306 304 301 298 295 294 294 294 294 294 293 293 292 292 291 291 291 291 291 291 291 291 291 290 290 289 288 288 288 288 287 287 287 287 286 286 286 285 285 285 284 284 284 283 283 283 282 282 282 282 282 282 282 281 281 280 280 280 280 279 279 279 279 279 279 280 280 280 280 280 280 281 281 281 281 281
308 308 308 308 307 307 307 306 306 305 303 300 297 294 293 293 293 293 294 294 293 293 292 291 291 291 291 291 292 292 292 291 290 289 289 288 288 288 287 287 287 287 286 286 286 285 285 285 284 284 283 283 283 282 282 282 282 282 282 281 281 281 281 280 280 279 279 279 279 279 278 278 278 278 278 279 279 279 279 279 279 280 280 280 280
307 307 307 307 307 306 306 306 305 304 302 298 295 293 293 293 292 292 293 293 293 293 292 292 291 291 291 292 293 292 291 290 289 288 288 288 288 287 287 287 286 286 286 286 286 285 285 284 284 283 283 283 282 282 282 281 281 281 281 281 281 281 280 280 280 279 279 279 278 278 278 278 278 277 277 277 278 278 278 279 279 279 279 279 279
307 307 306 306 306 306 306 305 304 302 299 296 294 293 292 292 292 292 292 291 291 291 291 291 291 291 292 292 292 290 289 288 288 288 288 288 287 287 287 286 286 286 286 286 285 285 284 284 284 283 283 282 282 282 282 281 281 281 281 281 281 280 280 279 279 279 278 278 278 277 277 277 277 277 276 276 276 277 277 277 278 278 278 278 279
306 306 306 306 306 305 304 304 302 300 297 294 293 293 292 292 291 291 291 291 290 290 290 290 290 291 292 291 289 288 288 288 288 288 288 287 287 287 286 286 286 286 286 285 285 285 284 284 283 283 283 282 282 282 282 281 281 281 280 280 280 280 279 279 278 278 278 277 277 277 276 276 276 276 276 275 276 276 275 276 276 277 278 278 278
306 306 305 305 305 304 303 302 301 299 296 293 292 292 292 292 291 290 290 290 290 290 290 289 290 292 293 291 289 288 289 288 288 288 288 287 287 286 286 286 286 286 286 285 285 285 284 284 283 283 283 282 282 282 282 281 281 281 280 280 279 279 278 278 278 277 277 277 277 276 276 276 275 275 275 275 275 275 275 275 275 275 276 277 277
305 305 305 304 304 303 303 301 300 298 295 293 292 292 292 291 291 291 290 290 289 290 289 289 291 293 293 290 289 289 289 288 288 288 287 287 287 286 286 286 286 285 285 285 285 284 284 283 283 283 282 282 282 282 281 281 280 280 280 279 279 278 278 278 277 277 277 276 276 276 276 275 275 275 275 275 274 274 274 274 274 274 275 276 277
304 304 304 303 303 303 302 301 299 297 294 293 292 292 292 292 291 291 291 290 290 290 289 291 293 294 291 289 288 289 288 288 288 287 287 287 286 286 286 286 285 285 285 285 284 284 284 283 283 282 282 282 281 281 281 280 280 279 279 279 278 278 278 277 277 277 276 276 276 275 275 275 275 275 275 274 274 274 274 273 273 273 273 274 276
302 303 303 302 302 301 301 300 298 296 294 293 292 292 292 292 291 291 291 291 291 291 291 292 294 293 290 289 289 288 288 288 287 287 287 287 286 286 286 285 285 285 285 284 284 284 283 283 282 282 282 281 281 281 280 280 279 279 278 278 278 277 277 277 277 276 276 276 275 275 275 274 274 274 274 274 274 274 274 273 273 273 273 273 274
301 301 302 301 301 299 299 298 296 295 293 292 292 292 292 291 291 291 291 291 290 291 291 292 293 292 290 289 289 289 288 287 287 286 286 286 286 286 286 285 285 285 284 284 284 283 283 282 282 281 281 281 281 280 280 279 279 278 278 278 277 277 277 277 276 276 276 276 275 275 274 274 274 274 274 274 274 274 273 273 273 273 273 272 273
300 300 301 301 300 299 297 296 295 293 292 292 291 292 291 291 291 291 291 290 290 290 290 290 290 290 289 289 289 289 288 287 286 286 286 286 285 286 285 285 284 284 284 283 283 282 282 282 282 281 281 280 280 280 279 279 278 278 277 277 277 277 277 276 276 276 276 276 275 275 274 274 273 273 273 273 274 273 273 273 273 273 273 272 272
300 300 300 300 300 298 296 295 293 292 291 291 291 291 291 291 291 290 290 290 290 290 290 290 289 289 289 289 289 288 288 287 287 286 286 286 286 286 285 284 284 284 283 283 282 282 282 282 281 281 280 280 279 279 279 279 278 278 277 277 277 276 276 276 276 276 276 276 275 275 274 274 273 273 273 273 273 273 273 273 272 272 272 272 272
300 300 299 299 298 297 296 294 292 291 291 291 291 291 291 291 290 290 290 290 289 290 290 290 289 289 289 288 288 288 287 287 287 287 287 286 286 285 285 284 284 283 283 282 282 282 281 281 280 280 280 279 279 279 278 278 278 277 277 276 276 276 276 276 276 275 275 275 275 275 275 274 274 273 273 273 273 273 273 272 272 272 272 272 272
300 299 299 298 298 297 295 294 292 291 290 290 290 290 290 290 290 290 290 289 289 290 290 290 289 289 288 288 288 287 287 287 287 287 286 286 285 285 284 284 283 282 282 281 281 281 281 280 280 279 279 279 278 278 278 278 277 277 276 276 276 275 275 275 275 275 275 275 275 275 275 274 274 274 273 273 272 272 272 272 272 272 272 272 272
298 298 298 297 297 296 295 294 292 291 290 290 290 290 290 290 290 290 289 289 289 289 289 290 289 289 288 288 287 287 287 286 286 286 286 285 284 284 284 283 282 282 281 281 281 280 280 280 279 279 279 278 278 278 277 277 276 276 276 275 275 275 275 275 275 275 275 274 274 274 274 274 274 274 274 273 273 272 272 272 271 272 272 272 271
297 297 297 296 296 295 294 294 293 291 290 289 289 289 289 289 289 289 289 289 289 289 289 290 289 288 288 287 287 287 286 286 285 285 285 284 284 284 283 283 282 282 281 280 280 280 280 279 279 279 278 278 278 277 277 276 276 275 275 275 275 275 274 274 274 274 274 274 274 274 274 274 274 274 274 273 273 272 272 272 271 271 272 272 271
296 296 296 296 295 294 293 293 292 291 290 290 289 289 289 288 288 288 288 288 288 288 289 289 289 289 288 288 287 286 286 285 285 285 284 284 284 284 283 283 282 281 281 280 280 280 279 279 279 278 278 278 277 277 276 276 275 275 275 274 274 274 274 274 274 274 274 274 274 273 273 274 274 274 274 273 273 273 272 272 272 271 271 271 271
295 295 295 295 294 294 293 292 291 291 290 290 289 289 289 288 288 288 288 288 288 288 288 289 290 289 288 287 287 286 286 285 285 285 284 284 284 283 283 283 282 281 280 280 280 279 279 279 278 278 277 277 277 276 276 275 275 275 274 274 274 274 274 274 274 273 273 273 273 273 273 273 273 273 273 273 273 273 273 272 272 271 271 271 271
295 294 294 294 294 293 293 292 291 290 290 289 289 289 288 288 288 288 288 288 289 288 288 288 289 289 288 287 287 286 286 285 285 285 284 284 283 283 282 282 281 280 280 280 279 279 279 278 278 277 277 277 276 276 275 275 275 274 274 274 274 273 273 273 273 273 273 273 273 273 273 273 273 273 273 273 273 273 273 272 272 272 271 271 271
295 294 294 294 293 293 292 291 290 289 289 289 289 288 288 288 288 288 288 288 288 288 288 288 288 288 287 287 286 285 285 285 284 284 284 283 283 282 282 281 280 280 280 280 279 279 278 278 277 277 277 276 276 276 275 275 274 274 274 274 273 273 273 273 273 273 273 273 273 273 273 273 273 273 273 272 272 273 272 272 272 272 271 271 271
295 294 294 294 293 293 292 291 290 289 288 288 288 288 288 287 287 287 287 287 287 287 287 288 287 287 286 286 285 285 284 284 284 283 283 283 282 282 281 280 280 280 280 279 279 278 278 277 277 276 276 276 275 275 275 274 274 274 273 273 273 273 273 273 273 272 272 272 272 272 272 272 272 272 272 272 272 272 272 272 272 272 271 271 271
293 293 293 293 293 292 292 291 290 289 288 287 287 286 286 286 286 286 286 287 287 287 286 286 286 285 285 285 285 284 284 283 283 283 282 282 282 281 281 280 280 279 279 278 278 278 278 277 276 276 275 275 275 274 274 274 274 273 273 273 273 273 273 272 272 272 272 272 272 272 272 272 272 272 272 272 272 272 272 272 272 272 272 271 271
292 292 292 292 292 292 291 290 290 289 288 287 286 286 286 286 285 285 285 285 285 285 285 285 285 284 284 285 284 284 283 283 283 283 282 281 281 281 280 280 279 278 278 278 278 278 277 276 276 275 275 274 274 274 274 273 273 273 273 273 273 272 272 272 272 272 272 272 272 272 272 272 272 272 272 272 272 271 272 272 272 272 272 272 271
292 291 291 291 291 291 290 290 289 289 287 287 286 286 286 286 285 285 285 285 284 284 284 284 284 284 284 285 284 284 284 283 283 282 282 281 281 281 280 279 278 277 277 277 277 277 277 276 275 275 274 274 274 274 273 273 273 273 272 272 272 272 272 272 272 272 271 271 271 271 271 271 271 271 271 271 271 271 271 271 271 272 271 272 271
290 290 291 290 290 290 289 289 289 289 288 288 287 286 286 286 285 285 284 284 284 284 284 284 284 284 284 284 284 284 283 283 282 281 281 281 280 280 279 278 277 277 277 277 277 276 276 275 275 274 274 274 273 273 273 273 273 272 272 272 272 272 272 272 272 271 271 271 271 271 271 271 271 271 271 271 271 271 271 271 271 271 271 271 271
Wind_Speed
24 25 25 25 25 25 25 26 25 25 24 23 23 22 21 21 20 20 19 19 19 19 19 20 18 16 15 18 21 18 18 20 22 22 22 21 19 17 16 14 11 10 9 8 6 5 4 4 4 4 5 7 9 11 13 15 18 19 21 22 23 24 26 28 32 38 39 39 40 42 44 46 48 49 50 52 52 51 51 51 50 51 51 51 50
20 21 22 23 23 23 23 23 23 23 23 22 21 21 21 21 21 20 19 17 18 20 21 20 20 18 16 19 21 21 20 19 19 19 18 17 15 14 12 11 10 9 8 7 7 6 4 4 4 6 7 9 11 13 16 17 18 20 21 22 23 24 26 28 31 36 39 40 40 42 44 46 47 48 48 50 52 52 52 51 51 50 51 51 51
15 17 18 20 20 21 21 21 21 21 20 20 20 20 20 20 19 18 17 17 20 22 21 21 19 16 18 21 22 21 21 19 17 15 14 14 13 13 12 11 10 9 8 7 6 5 5 4 5 7 9 11 13 15 16 17 18 19 20 21 23 24 25 27 30 33 38 41 42 43 45 45 46 47 47 48 49 50 51 51 51 51 51 51 51
13 14 15 16 17 17 18 18 18 18 18 19 19 19 19 18 17 16 16 20 22 22 20 19 19 18 20 22 22 21 20 18 16 15 14 14 12 12 11 10 10 9 8 7 6 5 5 5 7 9 11 12 14 16 17 17 18 19 20 21 22 23 25 26 28 31 35 40 42 42 43 45 45 45 46 48 48 48 49 50 51 52 51 51 50
11 11 12 13 13 14 15 15 16 16 18 18 18 17 17 16 16 18 19 21 21 21 21 21 22 23 22 21 19 17 16 16 16 16 15 14 12 11 11 10 10 9 7 6 5 5 6 7 8 10 12 13 14 15 16 17 18 18 19 20 21 23 25 26 28 30 33 37 40 41 42 43 44 43 43 46 49 50 50 50 51 51 51 51 50
11 11 11 12 12 13 14 14 15 15 17 17 16 17 18 19 19 20 21 22 22 24 24 24 24 23 20 18 17 17 17 17 16 15 14 13 13 12 11 10 9 8 7 6 6 6 7 8 10 11 12 14 14 15 16 16 17 18 18 19 21 23 25 26 28 30 32 35 38 40 41 42 43 43 42 43 46 48 50 52 53 52 52 54 54
11 12 12 12 13 13 14 14 14 15 16 17 17 18 19 20 21 21 23 24 24 24 23 22 21 19 17 17 17 17 17 17 15 14 13 13 13 12 12 10 9 8 7 6 6 7 8 9 11 12 13 14 15 15 16 16 17 17 18 20 22 23 25 27 29 30 32 35 36 38 40 41 41 42 42 42 42 43 46 50 54 55 56 57 58
12 12 12 13 13 12 13 14 13 14 16 18 20 21 21 21 22 23 24 23 21 20 20 19 19 19 18 17 17 17 16 15 14 14 14 14 14 13 12 10 9 7 6 6 6 7 9 10 11 12 13 14 15 15 16 16 17 18 19 21 23 24 26 27 29 31 33 34 36 38 40 40 40 41 42 42 43 45 44 45 49 54 57 59 58
12 13 12 12 13 13 14 14 15 15 17 19 20 22 23 23 24 24 23 21 20 20 19 19 18 18 18 18 18 17 16 15 15 15 14 14 14 13 11 9 7 6 6 6 7 8 9 10 12 13 14 14 15 15 15 16 17 19 20 22 23 25 26 28 29 31 33 35 36 38 40 41 40 40 42 43 44 46 45 44 47 50 52 56 57
12 13 13 13 14 15 15 16 17 19 21 22 22 22 23 24 24 23 22 21 21 20 19 18 18 18 18 19 19 18 18 18 17 17 16 14 13 11 9 8 6 5 6 6 7 9 10 11 12 13 13 14 14 15 16 17 18 19 21 22 24 25 27 28 30 31 33 35 36 37 39 41 40 39 40 42 43 45 44 44 45 47 49 52 57
14 15 15 15 16 17 17 19 20 22 22 23 24 24 23 23 22 22 22 22 21 20 19 20 19 19 19 19 19 20 20 19 19 17 16 14 11 9 8 6 6 6 6 7 8 9 10 11 12 12 13 13 14 15 16 17 18 19 20 21 23 25 26 28 30 31 33 35 36 36 37 40 41 39 39 40 42 44 43 42 41 44 45 47 52
17 17 17 17 18 18 19 20 21 23 23 23 24 23 23 22 22 23 23 22 21 21 21 21 21 21 21 21 21 21 21 20 18 16 14 12 10 8 7 7 6 7 7 8 9 10 11 11 12 12 13 14 15 15 16 17 18 19 20 21 22 23 25 27 30 31 32 34 36 36 36 38 40 39 37 37 39 41 42 41 39 40 42 43 47
19 19 19 19 19 19 20 20 21 21 23 23 23 23 23 24 24 23 23 22 22 22 22 22 23 22 22 22 22 21 20 19 17 15 13 11 10 9 8 7 7 7 8 9 10 10 11 11 12 12 13 14 15 16 16 17 18 19 20 21 22 23 25 27 28 29 31 33 35 37 35 34 36 37 36 35 36 38 39 39 39 39 42 44 46
19 19 19 19 19 19 20 20 20 21 23 23 24 24 24 24 24 23 23 23 23 24 24 24 24 24 23 22 21 21 19 18 16 15 13 11 10 9 8 8 8 8 9 10 10 10 10 11 11 12 13 14 15 16 17 18 19 20 21 22 23 25 26 27 28 29 30 31 32 34 34 32 33 35 35 33 32 33 33 35 36 38 41 44 46
19 19 19 19 19 19 20 21 21 22 24 25 25 25 25 25 25 24 24 24 24 25 25 25 25 24 23 22 21 20 19 18 16 14 13 11 10 9 8 8 9 9 10 10 10 10 11 11 12 12 13 14 15 16 18 19 20 21 22 23 25 26 27 28 29 29 30 30 30 32 32 32 32 33 32 30 30 30 31 32 33 34 37 42 46
19 19 19 19 19 20 21 22 23 24 25 26 26 26 26 26 26 26 26 26 26 26 26 25 25 24 23 22 21 20 19 17 16 14 12 11 10 9 9 9 10 10 10 10 11 11 11 11 12 12 13 14 15 17 18 19 21 22 24 24 26 27 28 28 29 29 29 29 29 30 31 31 31 30 30 30 30 31 32 33 33 33 35 40 44
20 20 19 20 20 21 22 23 24 26 27 27 27 27 27 27 27 27 27 28 27 27 26 26 25 24 23 22 21 20 18 16 15 13 12 11 10 10 10 10 10 10 10 11 11 11 11 11 11 12 13 14 16 17 19 20 21 23 25 26 27 29 29 30 30 30 30 30 30 30 30 29 29 29 29 29 29 30 31 32 33 32 33 36 40
21 20 20 20 21 22 23 24 25 27 27 28 28 28 28 28 28 28 28 27 27 27 27 26 25 24 23 22 21 19 17 15 14 12 12 11 11 11 11 11 10 11 11 11 11 10 10 11 11 12 14 15 16 18 19 21 22 24 26 28 29 30 31 32 33 32 32 31 31 30 30 30 30 30 29 29 29 29 28 29 29 29 29 31 35
21 21 21 22 22 23 24 25 26 27 27 28 29 29 29 29 29 29 28 27 27 27 27 26 25 25 24 22 20 18 16 14 13 13 12 12 12 11 11 11 11 11 10 10 10 10 10 11 12 13 14 15 17 18 20 22 23 25 27 29 30 31 32 33 34 34 34 33 33 33 32 31 31 31 30 30 30 29 29 28 28 26 25 29 32
22 22 22 23 23 24 25 26 27 27 28 29 30 30 30 30 30 29 29 28 28 27 27 26 26 25 24 22 20 18 16 15 14 13 13 13 12 12 11 11 10 10 10 10 10 10 10 11 12 13 15 16 17 19 20 22 24 26 27 29 30 31 32 32 33 33 34 34 34 33 33 32 32 32 32 32 31 31 31 30 28 25 24 27 29
23 23 24 24 25 26 26 27 28 28 29 30 30 31 31 30 30 30 30 29 29 28 28 27 26 24 23 21 20 18 17 16 15 15 14 13 13 12 11 11 10 9 9 10 10 10 11 11 13 14 15 16 18 19 21 22 24 25 26 28 29 30 31 31 32 32 33 33 33 33 33 32 32 32 32 33 33 33 33 33 31 28 25 25 27
25 25 25 26 26 27 28 28 29 29 30 31 31 31 32 31 30 30 30 30 30 29 29 28 26 24 23 22 21 19 18 17 17 16 15 14 13 13 11 10 10 10 10 10 10 11 11 12 13 14 15 16 18 19 21 22 23 24 25 27 28 29 30 30 31 32 32 32 32 33 33 33 33 33 33 34 34 35 35 35 33 31 28 26 25
26 26 27 27 27 28 29 29 30 30 31 32 32 32 32 32 32 32 32 31 31 30 29 28 27 26 24 23 22 20 19 18 17 17 16 15 14 13 11 11 11 11 11 11 11 12 12 13 13 14 15 16 18 19 20 21 22 24 25 26 27 28 29 30 31 31 32 32 33 33 33 34 34 34 35 35 36 36 36 35 35 33 31 29 27
27 27 27 27 28 29 29 30 31 31 32 33 33 33 33 33 34 33 33 32 31 30 29 29 28 27 25 24 22 21 20 19 18 18 17 16 14 13 12 12 12 11 12 12 12 12 13 13 14 14 15 16 17 18 20 21 22 23 24 25 26 27 28 30 31 31 32 33 33 33 33 33 33 34 35 35 35 36 36 35 35 34 33 32 30
26 26 27 27 28 29 30 31 32 32 33 34 34 35 35 35 35 34 33 32 31 30 30 29 28 27 26 24 22 21 20 19 19 19 18 16 15 14 13 12 12 12 12 12 13 13 13 13 14 14 15 16 17 18 19 20 21 22 23 24 26 27 28 29 30 31 32 33 34 34 33 33 32 33 33 34 34 34 35 36 36 36 36 35 34
25 25 27 28 28 30 31 33 34 34 35 35 36 36 36 36 35 34 34 33 32 31 31 30 29 28 26 24 23 22 21 20 20 20 19 17 16 15 14 13 13 13 13 13 13 13 13 13 13 14 15 15 16 17 18 19 20 21 23 24 25 27 28 29 30 31 32 33 33 34 33 33 32 32 32 32 33 33 35 36 37 37 38 38 38
25 26 27 28 30 32 33 34 36 36 37 37 38 38 37 36 35 35 34 34 34 33 32 31 29 28 26 24 23 21 21 22 22 22 20 18 17 16 15 14 14 14 14 13 13 12 13 13 13 14 14 15 16 16 17 18 19 20 22 23 25 26 27 28 29 30 31 32 32 32 33 32 32 32 32 32 32 32 33 34 35 37 37 38 39
25 26 28 29 31 33 35 36 37 38 38 39 39 40 39 38 37 36 35 34 33 33 32 31 29 27 25 23 22 22 24 25 24 22 21 19 17 17 16 15 15 15 14 13 13 12 13 13 13 14 14 15 16 16 17 18 19 20 21 23 24 25 26 26 27 27 28 29 30 31 32 32 32 33 33 32 32 32 32 32 33 35 36 36 37
26 27 29 31 33 34 36 37 38 39 40 40 40 40 39 38 37 36 34 33 32 31 30 29 28 25 23 21 23 24 26 25 23 22 21 20 19 18 17 17 16 15 14 14 13 13 12 12 13 13 14 14 15 16 17 17 18 19 21 22 23 24 24 25 26 26 27 28 29 31 32 32 33 32 32 33 32 32 32 32 32 34 34 34 34
28 29 30 32 34 36 37 39 40 40 41 41 41 41 40 38 38 37 35 34 33 31 30 28 26 24 22 23 25 25 24 23 22 23 22 21 20 19 19 18 17 16 15 14 13 13 12 12 13 13 14 15 16 16 17 17 18 19 20 21 22 22 23 24 25 26 26 27 28 30 31 32 32 32 33 34 34 33 32 32 32 32 33 34 34
29 30 31 33 35 37 38 39 40 41 42 42 42 41 41 40 39 38 36 34 33 32 30 29 27 25 25 27 28 28 27 26 25 25 24 23 22 21 20 19 18 17 16 15 14 13 13 13 13 14 14 15 16 17 17 18 18 19 19 20 21 22 22 23 24 25 26 26 27 28 29 30 31 32 32 33 34 34 33 32 32 32 32 32 33
30 30 31 33 35 37 39 40 41 42 43 43 43 43 42 41 40 39 38 36 34 33 32 31 30 29 30 32 31 30 29 28 27 26 26 25 24 23 22 21 19 18 17 15 14 14 14 13 14 15 15 16 17 17 18 18 19 19 19 19 20 21 22 23 24 24 25 26 26 27 28 29 30 30 31 32 33 34 34 33 32 32 32 32 31
30 30 31 33 35 37 39 41 42 44 45 45 45 44 43 42 41 41 40 38 37 36 35 34 32 32 34 35 33 31 30 29 29 29 28 27 26 25 23 22 21 20 18 16 15 15 14 15 15 16 16 16 17 17 18 18 18 19 19 19 20 21 22 23 24 24 24 24 25 25 26 27 28 29 29 30 31 32 33 33 33 33 32 32 32
29 31 32 33 35 38 40 42 44 45 46 46 45 44 43 42 42 42 41 40 39 39 39 36 34 35 37 36 34 33 32 32 31 31 30 29 28 26 25 24 22 21 19 17 16 16 15 16 16 16 16 17 17 17 18 18 18 18 18 19 19 20 21 22 23 24 24 24 24 24 25 26 27 28 29 29 30 31 32 32 32 33 32 32 32
29 31 33 34 36 38 40 42 44 45 46 46 45 44 43 43 42 43 42 41 41 40 38 36 36 37 39 37 35 35 35 34 33 32 31 31 30 29 27 25 23 21 20 18 17 17 17 17 16 16 17 17 17 17 17 18 18 18 17 18 18 19 20 21 22 23 24 24 25 24 24 25 26 27 28 28 29 30 31 31 31 32 32 32 31
29 32 34 35 36 38 40 42 44 45 45 45 44 44 43 43 43 43 43 43 42 40 38 37 38 39 39 37 36 36 37 37 35 34 33 32 32 31 29 26 24 22 21 19 19 18 18 17 17 17 18 18 18 17 17 17 18 17 17 18 18 19 20 21 22 23 24 24 25 25 24 24 25 26 27 27 28 29 29 30 30 30 30 31 30
28 30 32 34 36 38 40 42 44 45 46 45 45 45 44 44 44 44 45 44 43 40 40 40 40 39 39 38 38 39 39 39 37 35 34 34 34 33 30 27 25 24 22 20 20 19 18 18 17 18 18 18 18 17 17 17 18 17 17 17 18 19 20 21 22 23 24 24 24 24 24 24 25 25 26 27 27 28 28 29 29 30 30 29 29
27 29 31 34 36 38 40 42 44 46 47 47 47 46 45 46 46 46 46 45 43 41 41 42 42 42 41 40 40 41 41 40 38 37 37 37 36 34 30 27 26 25 23 21 21 20 19 18 18 18 19 18 18 18 17 17 18 17 17 17 17 17 19 20 21 22 23 24 24 24 24 24 24 24 25 26 26 27 27 27 29 30 30 30 29
27 29 31 34 36 38 40 42 44 47 48 48 48 47 47 47 47 47 47 45 44 43 43 43 45 45 43 41 41 41 41 41 40 40 39 38 35 32 30 29 27 26 23 22 21 20 19 19 18 18 19 19 18 18 18 18 18 17 17 17 16 16 17 19 20 21 22 23 23 23 24 24 24 24 24 25 25 26 26 26 27 29 29 30 29
27 29 32 34 37 39 41 43 45 48 49 50 50 49 49 49 48 48 48 47 46 45 44 45 46 45 43 42 41 41 41 41 41 40 39 35 33 31 31 30 28 25 24 23 22 21 20 19 19 19 19 19 19 18 18 18 18 17 17 16 16 16 16 18 20 21 21 22 22 22 23 24 25 24 24 24 24 25 25 25 26 27 28 28 28
27 29 32 34 37 39 41 44 46 48 50 51 51 51 50 50 50 49 49 48 48 47 45 45 45 45 43 42 42 42 42 42 41 39 37 33 32 32 31 30 28 26 25 24 23 22 21 20 20 20 20 19 19 19 19 18 18 17 17 16 16 16 16 18 19 21 21 21 22 22 23 23 24 25 24 24 24 24 24 24 24 25 26 26 27
26 28 31 33 37 40 42 44 46 48 50 52 52 52 52 52 51 50 50 49 48 47 45 44 44 45 45 44 44 44 44 42 41 39 37 35 34 34 33 31 29 27 26 25 24 23 22 21 21 21 20 20 20 19 19 18 18 18 17 17 16 16 17 18 19 21 21 21 21 22 23 23 24 25 25 24 24 24 24 24 24 24 25 26 26
25 27 29 32 36 39 42 44 46 48 50 52 53 53 52 51 51 50 49 48 48 48 46 45 45 47 47 46 46 46 45 44 43 41 39 38 37 36 33 31 29 28 27 26 25 24 23 22 22 21 20 20 20 20 19 19 18 18 18 17 17 17 18 19 20 21 22 22 22 22 23 24 24 25 25 25 25 24 25 25 24 24 24 25 25
23 25 28 31 34 37 40 43 46 48 50 51 52 53 52 51 50 50 49 49 49 49 48 47 47 49 50 49 48 48 47 46 45 43 41 40 39 36 33 31 30 29 29 27 26 25 25 24 23 22 21 21 21 20 20 19 19 19 19 18 18 18 19 20 21 22 23 23 23 23 23 24 25 25 25 25 25 25 25 25 25 24 24 24 24
22 24 27 30 33 36 39 42 45 48 50 51 53 53 52 52 51 51 50 50 51 51 51 51 51 52 52 51 50 50 49 47 46 44 42 40 38 35 33 32 31 30 29 27 27 27 26 25 24 23 22 22 22 21 21 20 20 20 20 20 19 19 20 21 22 23 24 25 25 25 25 25 25 26 26 25 25 25 25 25 25 25 24 24 24
23 24 26 29 31 34 37 40 43 46 49 51 52 53 53 53 53 52 52 53 53 53 53 53 54 54 54 52 51 49 48 47 45 43 41 39 37 35 33 32 32 31 29 28 28 28 27 25 25 24 23 23 23 22 21 21 21 21 21 21 21 21 22 23 23 24 25 26 26 27 27 27 26 26 27 27 26 25 25 25 25 25 25 24 24
23 24 26 28 30 32 35 37 40 43 46 49 51 52 52 53 53 53 53 53 53 53 54 55 55 55 53 50 49 47 46 45 44 42 40 38 37 36 34 33 33 32 31 30 29 29 28 27 25 24 24 23 23 23 23 23 23 23 23 22 22 23 24 24 25 26 26 27 28 28 28 28 28 28 27 27 27 26 26 25 25 25 25 25 24
24 24 25 27 28 31 33 35 37 40 43 46 48 50 51 52 52 53 54 54 55 56 56 56 55 53 50 48 47 45 45 44 43 41 40 39 38 36 35 34 34 34 33 31 30 30 29 28 27 26 25 24 24 24 24 24 24 24 24 24 24 25 25 26 27 27 28 28 29 29 30 30 30 29 29 28 27 27 27 26 26 26 26 25 24
26 26 26 27 28 29 31 33 35 37 39 41 43 46 48 50 51 53 54 54 55 54 54 52 50 49 48 47 45 44 44 43 43 42 41 39 38 36 36 36 36 35 33 32 31 30 29 29 28 27 26 25 25 25 25 25 25 26 25 25 26 26 27 28 28 29 30 30 30 30 31 31 31 30 30 29 28 28 27 27 26 26 26 26 25
28 28 28 28 29 29 30 32 34 35 37 38 40 43 45 47 49 51 52 52 52 51 50 49 47 46 46 46 45 44 45 45 44 43 42 39 38 38 37 36 36 35 34 33 32 31 30 30 29 28 27 27 27 27 26 26 27 27 27 27 27 28 28 29 30 31 31 31 31 32 33 33 32 31 31 30 29 28 28 27 27 27 27 27 26
29 29 30 30 30 30 31 32 33 35 36 38 40 41 43 44 46 47 48 49 49 49 48 47 45 44 44 44 44 44 45 44 43 42 41 40 39 38 37 36 36 36 35 34 32 31 30 30 30 29 29 29 28 28 28 28 28 28 28 28 29 29 30 31 32 32 33 33 33 33 34 34 33 33 32 30 30 29 28 28 27 27 27 27 27
Wind_Direction
238 238 238 237 237 238 239 240 241 241 239 237 236 236 235 233 232 232 231 233 235 231 219 211 223 249 247 221 215 222 226 225 233 241 242 243 244 241 238 235 229 218 208 201 197 200 208 226 258 282 297 307 312 317 322 325 325 325 324 324 324 323 323 323 321 321 325 328 327 328 328 328 329 331 330 329 330 331 331 331 331 331 330 331 332
233 234 234 232 233 233 234 236 236 235 233 231 230 229 227 227 228 226 225 227 226 222 223 234 250 253 233 219 224 238 244 242 241 240 234 231 228 221 217 211 202 194 189 191 197 203 219 241 267 288 299 309 316 320 323 323 322 322 323 323 324 325 326 326 324 322 324 328 331 331 331 332 331 332 333 331 330 331 330 331 331 330 330 330 331
220 224 226 227 228 229 229 231 231 229 227 226 227 225 221 222 224 223 221 220 217 218 228 238 240 234 225 222 225 236 247 248 242 230 218 213 208 201 195 188 184 186 188 194 204 214 233 255 279 297 307 315 320 321 321 321 319 320 321 323 325 327 327 327 325 325 326 330 334 333 332 333 332 333 334 333 332 331 330 329 329 329 330 331 330
213 215 218 221 223 224 226 228 228 226 223 223 223 220 216 216 216 214 212 210 210 213 221 225 225 228 232 233 235 240 242 234 223 211 201 196 189 185 184 180 182 188 193 201 210 224 247 274 292 305 314 316 318 317 316 316 317 319 323 325 326 327 328 328 329 329 329 330 333 334 333 333 334 335 335 332 331 331 329 329 329 329 330 330 330
211 213 215 218 220 221 224 225 225 221 217 217 217 211 207 207 207 207 208 210 215 222 229 231 232 235 239 240 236 227 215 205 200 195 189 182 175 176 179 180 186 191 195 206 222 245 270 290 301 308 313 312 311 311 311 314 317 320 323 325 326 328 331 332 332 331 330 330 332 333 333 333 334 335 336 333 331 330 329 329 329 330 330 330 331
204 206 208 211 214 215 217 219 218 214 211 211 210 203 200 204 209 211 215 220 226 231 235 237 238 237 233 224 211 200 191 186 185 182 178 174 172 178 183 185 189 193 202 219 242 268 284 297 305 307 307 307 306 308 310 314 317 318 321 325 329 332 333 334 333 333 332 331 332 332 333 334 334 335 337 337 335 333 331 329 328 330 331 332 334
200 202 204 206 210 213 213 215 214 208 204 203 203 203 205 209 214 217 222 227 231 232 232 230 224 216 206 196 188 183 180 178 176 174 174 175 178 183 186 189 194 202 217 239 259 281 292 298 303 303 304 306 307 308 310 312 315 319 324 329 333 334 335 335 335 335 334 333 333 332 332 334 336 336 337 337 336 336 337 334 331 332 334 334 336
200 203 204 205 210 211 209 212 211 204 200 199 199 203 208 214 217 220 226 229 227 220 213 206 198 192 187 183 178 175 177 177 176 177 178 180 183 187 189 194 203 215 233 255 271 285 294 296 300 302 304 306 306 307 310 313 319 325 330 333 335 336 336 337 336 336 336 334 334 334 334 336 338 338 337 338 337 336 339 338 334 333 334 333 333
204 206 207 208 210 211 209 209 208 203 201 204 206 206 209 215 219 223 226 223 213 203 197 193 190 186 180 175 175 176 177 178 177 180 184 185 186 190 194 201 212 227 244 267 280 286 292 296 300 303 302 303 305 309 314 320 325 331 334 336 337 337 338 338 338 337 337 336 337 337 336 337 340 340 339 340 338 336 337 337 334 332 332 329 329
211 211 212 212 212 213 213 211 209 207 205 208 212 213 214 218 221 221 217 208 200 197 194 189 185 184 181 179 180 179 178 180 180 182 186 188 191 194 199 208 221 240 258 272 281 286 293 296 298 298 299 303 308 313 320 326 331 335 338 339 339 340 340 339 340 340 339 339 340 340 339 338 340 342 340 339 337 334 334 335 332 330 329 325 326
216 217 217 217 216 215 216 214 214 214 213 213 215 216 217 217 214 208 201 197 195 194 190 185 181 182 183 182 181 180 180 182 184 185 186 189 193 197 206 220 233 249 263 273 281 286 290 291 293 296 301 306 311 317 323 330 335 337 339 340 341 342 342 341 342 343 341 340 340 341 341 339 339 340 338 335 334 332 332 331 328 326 326 323 322
218 218 218 219 220 219 220 218 217 217 217 216 215 213 211 206 201 198 196 195 193 188 184 183 182 182 183 184 184 184 185 185 185 187 188 190 196 204 216 230 241 254 266 274 280 284 285 289 295 300 305 310 315 321 327 332 336 338 338 341 343 343 344 344 344 343 342 340 340 342 343 340 338 338 335 330 329 329 328 327 326 324 322 320 317
219 218 217 218 219 221 222 221 219 217 214 212 210 206 202 199 197 198 196 194 190 186 184 184 184 184 185 187 187 186 186 186 186 187 190 195 203 212 222 234 246 258 267 271 276 281 286 293 299 303 308 314 319 324 329 333 336 337 338 340 342 344 345 346 346 344 343 343 342 343 344 338 333 333 331 328 327 327 326 325 324 321 317 318 317
221 220 218 218 219 220 221 220 218 215 212 209 205 201 200 199 198 197 195 192 189 187 187 186 186 187 188 189 189 188 187 188 188 191 196 202 210 218 227 241 252 260 267 271 277 282 289 295 300 305 310 316 321 325 329 333 334 335 338 340 341 345 346 346 347 346 347 347 343 342 342 337 331 330 331 330 326 324 323 320 318 317 317 320 321
222 221 220 221 221 221 221 219 216 214 210 207 204 202 201 200 197 194 193 192 192 191 190 189 189 189 189 190 191 189 189 191 193 197 202 207 215 224 235 246 255 264 270 275 281 287 292 297 302 309 316 319 323 326 328 332 333 334 338 340 341 346 347 347 348 349 349 349 345 342 342 338 333 331 330 328 325 322 320 317 317 319 321 322 322
221 222 221 223 223 222 221 218 215 212 210 207 205 204 203 200 196 194 193 194 193 192 191 191 192 192 190 190 193 194 195 196 199 203 208 213 222 231 241 251 259 267 273 277 284 288 294 301 307 314 320 323 326 329 330 333 335 335 338 340 343 347 348 348 350 350 350 349 347 345 342 338 335 331 328 327 327 325 323 322 325 327 327 326 325
222 223 224 225 225 223 222 219 215 212 210 209 207 205 202 199 197 197 197 195 194 193 193 192 192 194 194 193 196 199 200 201 204 209 214 220 229 237 246 255 261 268 272 276 283 288 295 304 311 317 322 326 329 332 333 335 337 337 339 342 345 347 348 348 349 350 351 350 349 346 343 339 335 330 328 329 330 331 331 330 332 332 331 329 325
225 226 227 228 227 225 222 219 217 215 213 211 209 205 202 200 199 199 199 198 195 194 194 194 193 195 198 199 199 202 206 207 209 214 219 225 234 242 250 256 261 266 271 276 283 291 299 307 314 320 325 330 333 334 335 336 338 339 342 345 346 346 346 347 348 349 350 348 347 346 343 340 337 335 334 334 336 339 339 337 336 336 332 326 321
229 230 231 230 228 226 224 221 219 216 215 212 208 205 203 201 200 199 198 199 198 196 196 197 198 198 199 201 201 204 209 213 215 219 225 230 237 244 251 257 261 267 273 281 289 296 305 312 319 325 329 332 334 335 336 338 340 343 345 346 346 345 346 347 347 346 346 346 346 345 344 342 342 341 340 341 344 346 344 341 342 340 332 325 323
232 232 233 231 229 227 224 221 220 216 214 211 207 206 205 203 201 199 198 198 200 200 199 200 202 202 200 201 204 208 213 218 221 225 229 234 240 245 251 258 264 271 278 286 293 302 310 317 323 328 330 332 334 335 337 340 342 346 346 345 345 345 346 346 344 343 343 343 343 343 343 344 345 344 343 345 347 347 344 345 347 344 337 331 330
233 233 233 230 229 227 224 221 219 214 211 210 207 206 206 205 203 202 200 200 201 202 203 202 203 205 204 205 209 213 216 220 224 229 233 236 241 246 251 258 265 273 280 288 295 304 311 317 322 326 329 331 334 337 339 342 344 346 345 344 344 344 342 341 340 340 339 339 340 341 343 344 345 345 345 347 347 345 343 344 346 346 343 341 337
232 232 232 230 228 226 223 219 216 212 209 208 208 207 206 205 205 205 203 203 203 204 205 204 204 206 208 210 213 216 219 223 226 231 236 239 243 247 252 259 266 272 279 287 295 301 307 313 318 323 327 331 335 337 340 343 344 344 343 343 342 340 338 337 336 335 335 336 338 341 342 343 344 345 346 347 346 344 343 343 345 345 344 345 344
232 232 231 230 228 225 222 218 214 211 208 208 209 209 207 206 206 206 207 206 205 205 206 206 207 209 211 213 215 217 221 226 230 234 239 242 245 248 254 260 266 272 280 287 293 298 304 310 316 322 327 332 336 339 341 343 343 342 341 340 338 337 335 334 332 331 333 335 338 340 341 343 344 346 347 347 345 343 342 341 343 344 342 342 346
232 232 231 230 227 224 220 216 213 210 208 208 209 210 210 209 207 207 208 209 208 207 208 209 211 212 214 216 218 220 225 229 234 238 242 244 246 250 256 262 268 276 282 287 292 297 305 312 317 324 330 334 338 340 341 342 341 339 338 336 335 334 332 331 330 331 333 335 336 339 341 343 345 346 346 346 345 342 341 340 342 343 342 341 345
235 234 232 230 227 223 218 214 212 211 210 210 210 211 212 211 209 209 209 210 211 211 211 213 214 215 217 219 222 225 228 232 237 241 244 247 249 252 258 264 270 277 281 285 292 299 307 314 319 327 333 336 338 340 340 339 337 335 334 333 332 331 330 329 330 331 333 335 337 338 340 342 344 345 343 344 344 342 340 340 340 341 342 342 344
239 236 233 229 225 222 217 214 212 211 210 211 212 213 214 214 213 212 211 211 213 214 215 216 217 217 219 221 224 228 232 237 242 244 246 248 250 254 260 265 271 276 280 286 293 300 308 315 322 328 333 335 337 337 335 334 332 332 332 331 330 329 329 329 331 333 335 337 337 337 339 339 340 339 338 340 343 344 343 342 341 341 342 342 342
240 237 233 229 224 220 217 215 214 213 211 211 212 213 215 216 216 215 214 214 214 215 217 218 219 220 222 223 227 233 239 244 245 245 245 248 251 256 262 266 270 275 279 286 294 301 308 316 322 328 332 333 334 333 330 330 330 329 329 329 329 329 330 331 334 335 336 336 336 336 337 337 336 336 336 337 341 345 346 345 344 344 345 345 343
240 237 233 229 225 221 218 217 216 215 213 212 212 213 214 215 216 218 219 220 220 220 220 221 222 223 224 228 235 242 244 244 243 244 247 250 252 257 262 264 268 273 279 286 293 299 307 315 321 326 329 329 328 327 326 326 327 327 327 328 328 329 330 331 333 335 335 335 336 335 335 335 336 336 336 337 340 344 346 346 346 346 347 348 346
238 236 232 228 225 222 220 219 218 217 216 214 213 214 215 215 217 219 221 223 225 226 226 226 226 226 230 238 246 247 246 245 244 244 247 250 252 256 259 261 265 271 277 283 289 296 303 311 318 323 324 323 322 322 322 323 325 326 327 328 327 327 329 330 332 334 335 336 337 336 336 336 338 339 338 338 340 343 345 346 346 347 348 348 349
238 234 231 228 226 223 222 220 219 218 217 216 214 214 214 215 217 219 221 223 224 225 227 228 228 230 237 245 246 244 242 243 243 244 247 250 251 252 255 258 262 268 272 277 284 292 300 308 315 317 316 315 315 317 318 321 324 325 325 326 326 327 329 331 333 335 337 339 339 338 337 338 339 340 341 341 342 344 345 345 345 346 348 348 349
239 236 232 229 227 225 224 222 220 219 218 217 217 216 215 215 216 218 220 222 223 224 225 225 226 232 240 242 240 238 239 241 242 244 247 249 249 250 252 256 260 263 268 274 282 289 297 304 308 308 308 309 312 315 317 320 322 323 324 326 327 329 330 332 335 337 338 339 340 339 339 339 340 342 343 343 343 344 345 345 345 345 346 348 350
242 239 235 232 229 227 225 225 223 221 219 218 217 217 217 217 216 217 218 220 221 223 224 224 227 235 241 240 237 238 241 243 245 246 246 247 248 248 250 253 257 260 265 272 279 286 292 296 298 300 303 307 310 313 316 319 320 322 325 328 329 330 332 333 336 338 338 339 339 339 339 339 340 341 343 343 343 344 345 346 346 345 345 347 349
244 240 237 233 231 229 227 226 225 224 221 220 219 218 219 219 219 219 219 219 220 222 223 224 230 239 242 240 239 241 243 244 245 246 246 247 248 248 249 252 255 258 263 269 275 281 285 289 292 296 299 303 307 311 313 316 319 322 326 328 330 331 333 333 334 335 336 337 337 338 339 338 338 339 341 342 343 344 345 347 347 346 345 345 347
245 241 237 234 232 231 230 228 227 225 223 222 222 221 221 222 223 223 222 222 223 223 223 226 234 240 239 238 239 241 243 243 244 245 246 247 248 248 249 250 252 256 261 265 270 276 280 283 288 293 297 300 304 308 311 314 318 322 325 328 330 331 331 331 331 332 333 334 335 336 337 336 336 337 338 341 342 343 345 347 347 347 346 345 345
244 240 237 234 233 233 233 232 230 227 226 225 224 224 225 225 225 226 228 229 230 230 229 233 240 240 238 237 239 241 243 244 244 244 246 247 248 248 248 249 251 255 258 262 266 271 275 280 285 290 294 298 301 305 309 313 317 320 323 326 329 329 327 327 328 328 329 331 332 333 334 334 334 335 337 339 340 341 342 345 347 347 347 345 344
245 242 239 235 234 234 234 233 232 230 228 228 227 227 228 228 229 230 231 232 233 234 236 240 243 241 238 239 241 242 243 243 243 243 245 246 248 249 249 250 252 253 255 259 263 267 272 278 284 288 291 295 298 302 307 311 314 317 321 324 326 326 325 325 325 326 327 329 330 331 332 332 332 334 335 336 338 338 340 342 344 346 347 346 344
249 246 243 240 237 235 234 234 233 231 230 230 229 229 230 230 231 232 233 233 234 235 238 241 242 241 240 242 242 242 242 242 241 242 243 245 246 249 249 249 250 251 253 256 260 264 270 276 281 285 288 291 295 299 304 308 311 314 318 322 323 324 324 324 324 324 325 327 328 329 330 331 332 333 333 333 334 335 337 339 341 344 346 347 345
249 247 245 243 240 237 235 234 233 232 231 230 231 231 232 233 233 234 235 235 236 237 239 241 242 242 243 243 242 242 241 241 241 242 243 244 246 249 250 249 249 251 252 255 258 263 268 273 277 281 284 287 291 296 300 304 307 310 314 318 320 322 322 322 322 322 324 326 327 328 329 330 331 332 331 330 330 332 334 338 339 340 343 345 346
249 247 244 242 240 238 236 235 234 233 232 232 232 233 234 235 236 237 237 237 237 238 240 242 243 244 244 244 244 243 242 243 244 245 246 247 248 250 250 249 250 251 252 254 258 262 266 270 274 278 281 284 288 292 296 299 302 306 310 313 317 320 320 320 320 321 323 326 328 328 329 329 330 330 330 329 328 330 332 336 338 339 340 342 345
252 249 246 243 241 239 237 236 235 234 234 234 235 235 236 237 238 238 238 238 239 240 241 244 246 247 247 248 249 248 248 248 249 250 250 251 250 249 250 250 251 252 253 255 258 261 264 269 272 275 278 281 284 288 292 295 298 302 306 309 313 318 319 319 319 322 325 328 330 330 330 329 328 328 328 328 328 329 331 333 335 336 337 339 341
254 252 249 246 244 241 239 238 237 236 236 236 236 237 238 239 240 240 240 240 241 242 244 247 250 251 251 251 252 252 252 252 252 252 252 251 248 247 248 250 250 251 252 255 258 260 263 266 269 272 275 278 281 285 288 291 294 298 301 305 310 315 317 318 320 322 326 331 333 333 332 330 328 327 327 328 327 328 329 331 332 333 333 335 338
256 254 251 249 246 244 242 241 240 239 238 238 238 239 240 241 241 242 242 243 244 245 246 250 253 253 252 252 253 252 252 252 251 250 249 248 245 245 246 247 248 250 251 253 256 259 261 264 266 268 271 274 277 280 283 286 290 293 297 301 307 311 314 316 318 320 325 330 333 334 334 332 330 327 327 327 327 327 328 329 330 331 331 332 335
260 257 254 252 250 248 246 245 244 243 242 241 242 242 243 243 244 244 245 246 247 247 249 251 254 254 253 253 252 251 250 250 250 249 248 247 246 246 247 247 248 249 250 252 254 257 259 261 263 265 268 271 274 277 279 282 285 289 293 298 303 308 311 313 315 317 321 325 329 332 333 333 331 329 327 327 327 327 327 327 327 328 329 329 331
264 260 257 255 253 251 250 248 248 247 246 246 246 246 246 246 246 247 247 248 249 249 249 251 253 255 254 253 251 250 250 250 249 249 248 247 247 247 248 248 247 247 248 251 254 256 258 260 261 263 266 269 271 273 276 278 282 286 290 295 300 304 307 309 311 314 317 319 322 326 329 331 332 330 329 327 326 326 325 325 325 326 327 327 328
266 263 260 258 256 254 253 252 251 251 250 250 249 248 248 248 248 248 248 249 250 250 250 250 252 253 253 252 251 250 249 249 249 249 248 248 248 249 249 248 247 248 249 252 254 256 258 259 260 262 265 267 269 271 273 276 280 283 287 291 297 300 303 306 308 311 314 315 318 321 323 326 328 329 329 328 326 325 324 323 322 323 324 324 325
267 265 263 261 259 257 256 255 255 255 255 255 254 253 252 251 251 250 250 250 251 252 252 252 253 253 252 252 252 250 250 250 250 250 249 248 249 249 249 248 248 249 251 252 253 255 257 258 258 260 262 264 266 269 271 274 277 280 284 289 293 297 300 303 306 308 310 312 315 317 319 321 323 325 326 327 326 324 322 321 320 320 320 321 323
270 268 266 264 263 261 260 259 258 257 256 256 256 256 255 255 254 254 254 254 254 254 254 255 255 254 253 254 254 253 252 252 252 251 249 248 247 247 247 247 248 250 251 251 252 254 256 257 257 258 258 260 264 267 269 271 274 277 281 285 289 293 297 300 303 305 307 309 312 314 316 317 318 319 321 323 324 322 320 318 318 318 317 318 320
274 271 268 266 265 264 263 263 262 261 260 259 258 258 257 256 255 254 254 254 254 254 254 254 254 254 255 256 256 255 253 253 253 251 249 246 245 245 246 247 248 248 249 249 251 254 256 257 257 257 257 258 261 263 265 268 271 274 278 282 286 290 294 297 299 302 303 306 309 311 311 313 314 314 316 318 320 319 318 316 315 315 315 315 317
280 278 276 273 269 267 266 265 265 265 265 264 263 263 262 261 260 258 257 257 257 257 258 258 258 258 258 258 257 255 254 253 252 251 248 245 244 244 244 245 245 246 247 248 250 253 255 256 257 257 258 258 259 261 263 265 269 272 275 279 283 287 291 293 296 298 300 302 305 306 307 308 310 310 311 313 314 315 315 314 312 311 312 312 314
282 281 280 278 276 274 272 270 269 268 267 266 265 264 263 263 262 262 262 262 262 262 262 262 262 260 260 260 259 258 256 254 252 249 246 244 244 243 243 243 244 245 246 248 250 251 253 255 256 258 259 259 260 261 262 265 267 270 273 277 281 285 288 291 293 295 297 299 301 302 303 305 306 306 307 308 309 310 311 311 310 309 309 309 310
285 283 282 280 278 277 275 273 272 271 270 270 269 268 267 266 265 264 264 264 264 263 263 263 263 262 262 262 261 258 255 252 250 247 244 243 243 243 243 243 244 245 246 247 249 250 252 254 256 258 259 260 261 262 263 265 268 270 273 276 280 284 286 288 290 292 294 296 298 299 300 301 302 303 303 304 304 306 307 308 307 306 305 306 307